Satellite: MET-2/21 Catalog number: 22782 Epoch time: 10216.52462894 Element set: 0848 Inclination: 082.5451 deg RA of node: 214.0890 deg Eccentricity: 0.0020717 Arg of perigee: 267.2173 deg Mean anomaly: 092.6617 deg Mean motion: 13.83645350 rev/day Decay rate: -2.7e-07 rev/day^2 Epoch rev: 85476 Checksum: 310
Satellite: OKEAN-4 Catalog number: 23317 Epoch time: 10216.70493698 Element set: 0304 Inclination: 082.5423 deg RA of node: 308.5750 deg Eccentricity: 0.0024023 Arg of perigee: 082.7054 deg Mean anomaly: 277.6904 deg Mean motion: 14.82843405 rev/day Decay rate: 3.39e-06 rev/day^2 Epoch rev: 85364 Checksum: 297
Satellite: NOAA-14 Catalog number: 23455 Epoch time: 10216.69119177 Element set: 0150 Inclination: 098.8770 deg RA of node: 297.0941 deg Eccentricity: 0.0010301 Arg of perigee: 096.9595 deg Mean anomaly: 263.2763 deg Mean motion: 14.13790628 rev/day Decay rate: -2.0e-07 rev/day^2 Epoch rev: 80435 Checksum: 304
Satellite: NOAA-15 Catalog number: 25338 Epoch time: 10216.88880024 Element set: 0474 Inclination: 098.6223 deg RA of node: 202.9477 deg Eccentricity: 0.0009720 Arg of perigee: 295.9037 deg Mean anomaly: 064.1143 deg Mean motion: 14.24845350 rev/day Decay rate: 1.8e-07 rev/day^2 Epoch rev: 63568 Checksum: 307
Satellite: RESURS Catalog number: 25394 Epoch time: 10217.80723580 Element set: 570 Inclination: 098.3041 deg RA of node: 233.1850 deg Eccentricity: 0.0002579 Arg of perigee: 075.3273 deg Mean anomaly: 284.8193 deg Mean motion: 14.24206914 rev/day Decay rate: -2.1e-07 rev/day^2 Epoch rev: 62741 Checksum: 278
Satellite: FENGYUN1 Catalog number: 25730 Epoch time: 10216.76304999 Element set: 0105 Inclination: 098.7865 deg RA of node: 180.4543 deg Eccentricity: 0.0022887 Arg of perigee: 125.7046 deg Mean anomaly: 234.6255 deg Mean motion: 14.08229772 rev/day Decay rate: 5.89e-06 rev/day^2 Epoch rev: 57852 Checksum: 328
Satellite: OKEAN-0 Catalog number: 25860 Epoch time: 10217.77942968 Element set: 64 Inclination: 097.8364 deg RA of node: 188.8033 deg Eccentricity: 0.0000749 Arg of perigee: 052.0657 deg Mean anomaly: 308.0615 deg Mean motion: 14.73652662 rev/day Decay rate: 4.9e-07 rev/day^2 Epoch rev: 59420 Checksum: 316
Satellite: NOAA-16 Catalog number: 26536 Epoch time: 10216.88804197 Element set: 0951 Inclination: 099.1691 deg RA of node: 235.5022 deg Eccentricity: 0.0010316 Arg of perigee: 196.3854 deg Mean anomaly: 163.6972 deg Mean motion: 14.12571681 rev/day Decay rate: 2.44e-06 rev/day^2 Epoch rev: 50870 Checksum: 310
Satellite: NOAA-17 Catalog number: 27453 Epoch time: 10216.89453720 Element set: 0947 Inclination: 098.4269 deg RA of node: 265.3684 deg Eccentricity: 0.0011711 Arg of perigee: 000.4182 deg Mean anomaly: 359.7010 deg Mean motion: 14.24178084 rev/day Decay rate: 1.2e-07 rev/day^2 Epoch rev: 42163 Checksum: 289
Satellite: NOAA-18 Catalog number: 28654 Epoch time: 10216.93247241 Element set: 0432 Inclination: 098.9512 deg RA of node: 163.0615 deg Eccentricity: 0.0013401 Arg of perigee: 277.7821 deg Mean anomaly: 082.1838 deg Mean motion: 14.11375306 rev/day Decay rate: -1.36e-06 rev/day^2 Epoch rev: 26831 Checksum: 286
Satellite: NOAA-19 Catalog number: 33591 Epoch time: 10216.93116871 Element set: 0630 Inclination: 098.7890 deg RA of node: 158.0202 deg Eccentricity: 0.0014440 Arg of perigee: 147.3570 deg Mean anomaly: 212.8489 deg Mean motion: 14.11071569 rev/day Decay rate: -1.61e-06 rev/day^2 Epoch rev: 07678 Checksum: 301
/EX SB KEPS @ AMSAT $ORB10217.M Orbital Elements 10217.MISC
HR AMSAT ORBITAL ELEMENTS FOR MANNED AND MISCELLANEOUS SATELLITES FROM WA5QGD FORT WORTH,TX August 5, 2010 Send Subscribe/unsubscribe to KEPS at http://www.amsat.org/mailman/listinfo/keps BID: ORB10217.M TO ALL RADIO AMATEURS BT
Satellite: HUBBLE Catalog number: 20580 Epoch time: 10216.58644794 Element set: 621 Inclination: 028.4695 deg RA of node: 283.8869 deg Eccentricity: 0.0003357 Arg of perigee: 000.6659 deg Mean anomaly: 359.3930 deg Mean motion: 15.01008823 rev/day Decay rate: 4.88e-06 rev/day^2 Epoch rev: 91203 Checksum: 307
Satellite: ISS Catalog number: 25544 Epoch time: 10217.91454058 Element set: 653 Inclination: 051.6468 deg RA of node: 336.1249 deg Eccentricity: 0.0006933 Arg of perigee: 185.3953 deg Mean anomaly: 273.8915 deg Mean motion: 15.71523797 rev/day Decay rate: 1.5425e-04 rev/day^2 Epoch rev: 67129 Checksum: 325
Satellite: CO-58 Catalog number: 28895 Epoch time: 10216.64370311 Element set: 0648 Inclination: 098.0085 deg RA of node: 099.5002 deg Eccentricity: 0.0019039 Arg of perigee: 131.1914 deg Mean anomaly: 229.0957 deg Mean motion: 14.59916950 rev/day Decay rate: 3.25e-06 rev/day^2 Epoch rev: 25405 Checksum: 314
Satellite: FALCON Catalog number: 30776 Epoch time: 10216.88311953 Element set: 0896 Inclination: 035.4326 deg RA of node: 108.6325 deg Eccentricity: 0.0001611 Arg of perigee: 277.8894 deg Mean anomaly: 082.1645 deg Mean motion: 15.03742635 rev/day Decay rate: 7.90e-06 rev/day^2 Epoch rev: 18739 Checksum: 311
Satellite: MAST Catalog number: 31126 Epoch time: 10217.64609851 Element set: 930 Inclination: 097.9337 deg RA of node: 257.0929 deg Eccentricity: 0.0095848 Arg of perigee: 072.5485 deg Mean anomaly: 288.6152 deg Mean motion: 14.53607510 rev/day Decay rate: 9.8e-07 rev/day^2 Epoch rev: 17524 Checksum: 322
Satellite: CAPE1 Catalog number: 31130 Epoch time: 10216.78094540 Element set: 0951 Inclination: 097.9357 deg RA of node: 253.5856 deg Eccentricity: 0.0104568 Arg of perigee: 083.8659 deg Mean anomaly: 277.4404 deg Mean motion: 14.52204418 rev/day Decay rate: 3.8e-07 rev/day^2 Epoch rev: 17471 Checksum: 308
Satellite: COMPASS Catalog number: 32787 Epoch time: 10216.17677516 Element set: 0742 Inclination: 097.8909 deg RA of node: 280.2676 deg Eccentricity: 0.0016687 Arg of perigee: 126.6295 deg Mean anomaly: 233.6441 deg Mean motion: 14.81923144 rev/day Decay rate: 5.0e-07 rev/day^2 Epoch rev: 12260 Checksum: 308
Satellite: AAUSAT2 Catalog number: 32788 Epoch time: 10217.66047847 Element set: 734 Inclination: 097.8910 deg RA of node: 281.8691 deg Eccentricity: 0.0016528 Arg of perigee: 123.0980 deg Mean anomaly: 237.1815 deg Mean motion: 14.82069997 rev/day Decay rate: 1.56e-06 rev/day^2 Epoch rev: 12283 Checksum: 330
Satellite: DO-64 Catalog number: 32789 Epoch time: 10216.71912671 Element set: 751 Inclination: 097.8979 deg RA of node: 281.4700 deg Eccentricity: 0.0016598 Arg of perigee: 124.1737 deg Mean anomaly: 236.1045 deg Mean motion: 14.82235165 rev/day Decay rate: 3.01e-06 rev/day^2 Epoch rev: 12269 Checksum: 313
Satellite: CO-66 Catalog number: 32791 Epoch time: 10217.69148818 Element set: 735 Inclination: 097.8914 deg RA of node: 281.7697 deg Eccentricity: 0.0016919 Arg of perigee: 120.2751 deg Mean anomaly: 240.0156 deg Mean motion: 14.81705097 rev/day Decay rate: 7.03e-06 rev/day^2 Epoch rev: 12278 Checksum: 327
Satellite: RS-30 Catalog number: 32953 Epoch time: 10217.79121224 Element set: 928 Inclination: 082.5031 deg RA of node: 358.8268 deg Eccentricity: 0.0018752 Arg of perigee: 357.8771 deg Mean anomaly: 002.2229 deg Mean motion: 12.43006949 rev/day Decay rate: 1.0e-07 rev/day^2 Epoch rev: 9990 Checksum: 297
Satellite: TACSAT-3 Catalog number: 35001 Epoch time: 10217.65536273 Element set: 351 Inclination: 040.4556 deg RA of node: 276.8754 deg Eccentricity: 0.0021079 Arg of perigee: 012.1064 deg Mean anomaly: 348.0254 deg Mean motion: 15.42205169 rev/day Decay rate: 4.812e-05 rev/day^2 Epoch rev: 6827 Checksum: 273
Satellite: PHARMSAT Catalog number: 35002 Epoch time: 10217.52820030 Element set: 331 Inclination: 040.4698 deg RA of node: 275.4657 deg Eccentricity: 0.0024827 Arg of perigee: 015.3268 deg Mean anomaly: 344.8296 deg Mean motion: 15.42688499 rev/day Decay rate: 4.455e-05 rev/day^2 Epoch rev: 6827 Checksum: 304
Satellite: HAWKSAT1 Catalog number: 35003 Epoch time: 10216.55710228 Element set: 0360 Inclination: 040.4619 deg RA of node: 274.6266 deg Eccentricity: 0.0022002 Arg of perigee: 025.2724 deg Mean anomaly: 334.9163 deg Mean motion: 15.46171552 rev/day Decay rate: 7.996e-05 rev/day^2 Epoch rev: 06820 Checksum: 267
Satellite: CP6 Catalog number: 35004 Epoch time: 10217.36500589 Element set: 351 Inclination: 040.4612 deg RA of node: 268.4205 deg Eccentricity: 0.0019165 Arg of perigee: 035.2567 deg Mean anomaly: 325.0021 deg Mean motion: 15.47172334 rev/day Decay rate: 1.0633e-04 rev/day^2 Epoch rev: 6833 Checksum: 258
Satellite: AEROCUB3 Catalog number: 35005 Epoch time: 10217.16320054 Element set: 400 Inclination: 040.4688 deg RA of node: 264.5020 deg Eccentricity: 0.0019027 Arg of perigee: 053.4675 deg Mean anomaly: 306.7880 deg Mean motion: 15.54262055 rev/day Decay rate: 3.3600e-04 rev/day^2 Epoch rev: 6836 Checksum: 259
Satellite: CASTOR Catalog number: 35694 Epoch time: 10217.66217299 Element set: 617 Inclination: 051.6298 deg RA of node: 292.9015 deg Eccentricity: 0.0007628 Arg of perigee: 358.8357 deg Mean anomaly: 001.2733 deg Mean motion: 16.18241564 rev/day Decay rate: 4.77454e-03 rev/day^2 Epoch rev: 5902 Checksum: 322
Satellite: METEOR-M Catalog number: 35865 Epoch time: 10217.74627673 Element set: 532 Inclination: 098.7548 deg RA of node: 271.1826 deg Eccentricity: 0.0001648 Arg of perigee: 214.7898 deg Mean anomaly: 145.3144 deg Mean motion: 14.21831103 rev/day Decay rate: 1.76e-06 rev/day^2 Epoch rev: 4576 Checksum: 308
Satellite: RS-38 Catalog number: 35869 Epoch time: 10217.78276443 Element set: 546 Inclination: 098.7534 deg RA of node: 271.2541 deg Eccentricity: 0.0003902 Arg of perigee: 214.2368 deg Mean anomaly: 145.8521 deg Mean motion: 14.21986210 rev/day Decay rate: 1.77e-06 rev/day^2 Epoch rev: 4577 Checksum: 315
/EX
participants (1)
-
Ray Hoad